Weather Roundup
Issued by NWS Springfield, MO

Home | Current Version | Previous Version | Text Only | Print | Product List | Glossary On
Versions: 1 2 3 4 5 6 7 8 9 10 11 12 13 14 15 16 17 18 19 20 21 22 23 24 25 26 27 28 29 30 31 32 33 34 35 36 37 38 39 40 41 42 43 44 45 46 47 48 49 50
000
NZUS99 KSGF 010459
HRRSGF

HOURLY WEATHER
NATIONAL WEATHER SERVICE SPRINGFIELD MO
1100 PM CST SAT JAN 31 2015

......SGF CWA......

CITY           SKY/WX    TMP DP  RH WIND       PRES   REMARKS
SPRINGFIELD    LGT RAIN  38  31  76 S22G29    29.88F WCI  27
JOPLIN         LGT RAIN  39  37  92 S10       29.89F FOG     WCI  32
WEST PLAINS    CLOUDY    38  24  57 SE9G20    30.00F WCI  31
ROLLA          LGT RAIN  36  26  67 SE15      29.93F WCI  27
OSAGE BEACH    CLOUDY    39  27  60 SE9       29.92F WCI  33

......SURROUNDING SGF CWA......

CITY           SKY/WX    TMP DP  RH WIND       PRES   REMARKS
CHANUTE        LGT RAIN  39  39 100 S9        29.86F FOG     WCI  33
PARSONS        LGT RAIN  40  39  97 S9        29.87F FOG     WCI  34
COFFEYVILLE    LGT RAIN  40  39  97 S13       29.87F WCI  32
EMPORIA        LGT RAIN  37  37 100 S13       29.82F WCI  29
SILOAM SPRINGS CLOUDY    39  30  70 S9        29.91F WCI  33
HARRISON AR    CLOUDY    41  28  60 SE21      29.93F
NEAR YELLVILLE CLOUDY    43  23  45 S8        30.00F

......KANSAS AND MISSOURI......

CITY           SKY/WX    TMP DP  RH WIND       PRES   REMARKS
KANSAS CTY INT LGT SNOW  33  33 100 SE12      29.88F FOG     WCI  24
DOWNTOWN KC    LGT SNOW  34  33  96 E5        29.89F FOG     WCI  30
COLUMBIA       LGT RAIN  37  29  72 SE7       29.96F WCI  32
SEDALIA        LGT RAIN  36  32  85 E8        29.93F WCI  30
ST JOSEPH      LGT SNOW  32  32 100 E5        29.89F FOG     WCI  27
ST LOUIS       CLOUDY    41  25  53 SE13      30.06F
SPIRIT OF STL  CLOUDY    40  24  53 SE6       30.03F
KIRKSVILLE     SNOW      33  33 100 SE14      29.96F VSB 1/2 WCI  23
WICHITA        LGT RAIN  40  40 100 S12       29.81F FOG     WCI  33
TOPEKA         LGT SNOW  33  32  96 E6        29.86F FOG     WCI  28
OLATHE         LGT SNOW  33  33 100 SE6       29.87F FOG     WCI  28

......TENNESSEE......

CITY           SKY/WX    TMP DP  RH WIND       PRES   REMARKS
MEMPHIS        CLOUDY    49  23  36 S12       30.08F
NASHVILLE      CLOUDY    41  21  44 SE7       30.19F

......ARKANSAS.......

CITY           SKY/WX    TMP DP  RH WIND       PRES   REMARKS
FAYETTEVILLE   LGT RAIN  42  33  70 S16G26    29.90F
FT SMITH       LGT RAIN  42  36  79 E9        29.96F
LITTLE ROCK    CLOUDY    44  32  62 E3        30.05F

......OKLAHOMA.......

CITY           SKY/WX    TMP DP  RH WIND       PRES   REMARKS
TULSA          LGT RAIN  43  42  97 S12       29.88F FOG
PONCA CITY     LGT RAIN  41  40  96 S7        29.86S FOG
MCALESTER      LGT RAIN  45  41  86 S7        29.91F FOG
OKLAHOMA CITY  LGT RAIN  45  42  89 S10       29.86F FOG

......IOWA............

CITY           SKY/WX    TMP DP  RH WIND       PRES   REMARKS
DES MOINES     LGT SNOW  34  31  88 E8        29.95F VSB 3/4 WCI  27
QUAD CITIES    LGT SNOW  33  31  92 SE5       30.08F FOG     WCI  29

......ILLINOIS........

CITY           SKY/WX    TMP DP  RH WIND       PRES   REMARKS
QUINCY         LGT SNOW  34  31  88 SE13      30.03F FOG     WCI  25
CHICAGO        LGT SNOW  31  29  92 E8        30.15S VSB 3/4 WCI  23




USA.gov is the U.S. government's official web portal to all federal, state and local government web resources and services.